Satellite-Ground Cal/Val Region Overpasses Predictions

Prediction of Satellite NPP Overpassing Cal/Val Region: PacNW

Region Location: (Latitude: 10.00, Longitude: 139.50) to (Latitude: 22.70, Longitude: 165.60).

Table of predicted overpasses for the next 14.0 days since TLE Epoch: 10/5/2018
Interval Starting Time Starting Location Ending Time Ending Location
1 10/06/2018 03:05:11 ( 10.05, 153.55) 10/06/2018 03:08:46 ( 22.67, 150.55)
2 10/06/2018 15:37:03 ( 22.68, 150.77) 10/06/2018 15:40:38 ( 10.05, 147.78)
3 10/07/2018 02:46:08 ( 10.02, 158.31) 10/07/2018 02:49:43 ( 22.64, 155.31)
4 10/07/2018 15:18:02 ( 22.65, 155.52) 10/07/2018 15:21:37 ( 10.02, 152.52)
5 10/08/2018 02:27:07 ( 10.05, 163.06) 10/08/2018 02:30:42 ( 22.67, 160.06)
6 10/08/2018 14:58:59 ( 22.68, 160.28) 10/08/2018 15:02:34 ( 10.05, 157.29)
7 10/09/2018 02:10:46 ( 19.54, 165.59) 10/09/2018 02:11:39 ( 22.64, 164.82)
8 10/09/2018 03:49:34 ( 10.03, 142.44) 10/09/2018 03:53:05 ( 22.42, 139.51)
9 10/09/2018 14:39:58 ( 22.65, 165.03) 10/09/2018 14:43:33 ( 10.02, 162.04)
10 10/09/2018 16:21:27 ( 22.70, 139.67) 10/09/2018 16:21:38 ( 22.05, 139.51)
11 10/10/2018 03:30:33 ( 10.06, 147.19) 10/10/2018 03:34:08 ( 22.68, 144.20)
12 10/10/2018 16:02:25 ( 22.67, 144.42) 10/10/2018 16:06:00 ( 10.05, 141.42)
13 10/11/2018 03:11:30 ( 10.03, 151.96) 10/11/2018 03:15:05 ( 22.65, 148.96)
14 10/11/2018 15:43:23 ( 22.70, 149.18) 10/11/2018 15:46:59 ( 10.01, 146.17)
15 10/12/2018 02:52:28 ( 10.00, 156.72) 10/12/2018 02:56:04 ( 22.68, 153.71)
16 10/12/2018 15:24:21 ( 22.66, 153.93) 10/12/2018 15:27:56 ( 10.04, 150.93)
17 10/13/2018 02:33:26 ( 10.03, 161.47) 10/13/2018 02:37:01 ( 22.65, 158.47)
18 10/13/2018 15:05:19 ( 22.69, 158.69) 10/13/2018 15:08:55 ( 10.01, 155.68)
19 10/14/2018 02:15:11 ( 12.77, 165.59) 10/14/2018 02:18:00 ( 22.69, 163.22)
20 10/14/2018 03:55:54 ( 10.01, 140.85) 10/14/2018 03:57:33 ( 15.83, 139.51)
21 10/14/2018 14:46:18 ( 22.66, 163.44) 10/14/2018 14:49:53 ( 10.04, 160.44)
22 10/15/2018 03:36:52 ( 10.04, 145.60) 10/15/2018 03:40:27 ( 22.67, 142.60)
23 10/15/2018 14:30:21 ( 11.77, 165.59) 10/15/2018 14:30:51 ( 10.01, 165.19)
24 10/15/2018 16:08:45 ( 22.68, 142.83) 10/15/2018 16:12:21 ( 10.00, 139.82)
25 10/16/2018 03:17:50 ( 10.02, 150.36) 10/16/2018 03:21:26 ( 22.70, 147.35)
26 10/16/2018 15:49:44 ( 22.65, 147.57) 10/16/2018 15:53:19 ( 10.03, 144.58)
27 10/17/2018 02:58:48 ( 10.05, 155.11) 10/17/2018 03:02:23 ( 22.67, 152.11)
28 10/17/2018 15:30:41 ( 22.68, 152.34) 10/17/2018 15:34:16 ( 10.06, 149.34)
29 10/18/2018 02:39:46 ( 10.02, 159.87) 10/18/2018 02:43:21 ( 22.64, 156.88)
30 10/18/2018 15:11:40 ( 22.64, 157.08) 10/18/2018 15:15:15 ( 10.02, 154.09)
31 10/19/2018 02:20:44 ( 10.05, 164.62) 10/19/2018 02:24:19 ( 22.68, 161.62)


NCC Satellite Cal/Val Overpasses Prediction Service
